Regional Weather Roundup
Issued by NWS

Home | Current Version | Previous Version | Text Only | Print | Product List | Glossary On
Versions: 1 2 3 4 5 6 7 8 9 10 11 12 13 14 15 16 17 18 19 20 21 22 23 24 25 26 27 28 29 30 31 32 33 34 35 36 37 38 39 40 41 42 43 44 45 46 47 48 49 50
000
ASUS43 KOAX 270702
RWRNE

WEATHER ROUNDUP FOR NEBRASKA
NATIONAL WEATHER SERVICE OMAHA NE
200 AM CDT WED AUG 27 2014

NOTES: SATELLITE DATA IS BEING USED TO AUGMENT CLOUD COVER ABOVE
       12000 FEET.
       "FAIR" INDICATES FEW OR NO CLOUDS BELOW 12,000 FEET WITH NO
       SIGNIFICANT WEATHER AND/OR OBSTRUCTIONS TO VISIBILITY.

  * THESE STATIONS DO NOT REPORT WEATHER SUCH AS RAIN...SNOW OR FOG.

NEZ001>004-019>022-054>056-270800-
NEBRASKA PANHANDLE

CITY           SKY/WX    TMP DP  RH WIND       PRES   REMARKS
SCOTTSBLUFF    PTCLDY    63  62  97 E3        30.15R
ALLIANCE       PTCLDY    64  60  87 CALM      30.15R
CHADRON        PTCLDY    62  59  90 CALM      30.14R
KIMBALL        MOCLDY    64  61  90 SE9       30.17F
SIDNEY         PTCLDY    65  62  90 SE8       30.17F
$$

NEZ057>060-069>072-079>082-270800-
SOUTHWEST NEBRASKA

CITY           SKY/WX    TMP DP  RH WIND       PRES   REMARKS
NORTH PLATTE   CLOUDY    69  67  93 SE14      30.13S
IMPERIAL       CLOUDY    68  61  78 S13       30.15F
LEXINGTON      CLOUDY    71  69  94 SE8       30.13S FOG
MCCOOK         RAIN      67  66  97 CALM      30.17R FOG
OGALLALA       MOCLDY    66  65  94 E6        30.15S
$$

NEZ005>010-023>029-035>040-094-270800-
NORTH CENTRAL NEBRASKA

CITY           SKY/WX    TMP DP  RH WIND       PRES   REMARKS
VALENTINE      PTCLDY    66  64  93 SE7       30.13R
AINSWORTH      CLOUDY    66  65  97 S8        30.14S
BROKEN BOW     CLOUDY    69  67  93 SE10      30.13F FOG
O`NEILL        CLOUDY    68  66  94 SE6       30.14S
ORD            MOCLDY    67  65  93 SE6       30.12S
THEDFORD       MOCLDY    67  66  96 SE6       30.14R
$$

NEZ041-046>049-061>064-073>077-083>087-270800-
SOUTH CENTRAL NEBRASKA

CITY           SKY/WX    TMP DP  RH WIND       PRES   REMARKS
GRAND ISLAND   CLOUDY    68  66  93 SE6       30.13S
AURORA         MOCLDY    67  67 100 SE7       30.12F
HASTINGS       PTCLDY    69  65  86 E9        30.12F
HEBRON         PTCLDY    69  66  88 NE3       30.10F
HOLDREGE       CLOUDY    69  68  94 CALM      30.12R FOG
KEARNEY *      CLOUDY    70  66  88 E10       30.12F
YORK           PTCLDY    66 N/A N/A E7        30.13F
$$

NEZ011>018-030>034-042>045-270800-
NORTHEAST NEBRASKA

CITY           SKY/WX    TMP DP  RH WIND       PRES   REMARKS
NORFOLK        MOCLDY    65  62  90 E5        30.13F
ALBION         MOCLDY    65  63  90 SE5       30.13F
BLAIR          MOCLDY    68  65  91 E5        30.13S
FREMONT        CLEAR     68  66  92 E5        30.13F
TEKAMAH        MOCLDY    66  64  93 N5        30.13F
WAYNE          MOCLDY    63  62  97 CALM      30.15R
$$

NEZ050>053-065>068-078-088>093-270800-
SOUTHEAST NEBRASKA

CITY           SKY/WX    TMP DP  RH WIND       PRES   REMARKS
LINCOLN        CLEAR     67  65  93 N6        30.13S
OMAHA EPPLEY   PTCLDY    71  64  78 CALM      30.13S
BEATRICE       PTCLDY    68  68  98 NE6       30.10F
FALLS CITY     PTCLDY    73  70  90 NE5       30.09S
NEBRASKA CITY  MOCLDY    69  69 100 E5        30.12S THUNDER
PLATTSMOUTH    PTCLDY    68  65  90 CALM      30.12F
$$

NEZ044-045-051>053-067-270800-
OMAHA AREA

CITY           SKY/WX    TMP DP  RH WIND       PRES   REMARKS
OMAHA EPPLEY   PTCLDY    71  64  78 CALM      30.13S
BLAIR          MOCLDY    68  65  91 E5        30.13S
FREMONT        CLEAR     68  66  92 E5        30.13F
MILLARD        PTCLDY    71  66  84 CALM      30.11F
OFFUTT AFB     PTCLDY    69  68  99 E5        30.12S
PLATTSMOUTH    PTCLDY    68  65  90 CALM      30.12F
WAHOO          FAIR      67  64  90 CALM      30.12F
$$



USA.gov is the U.S. government's official web portal to all federal, state and local government web resources and services.